Miscellaneous Local Product
Issued by NWS Hastings, NE

Home | Current Version | Previous Version | Text Only | Print | Product List | Glossary On
Versions: 1 2 3 4 5 6 7 8 9 10 11 12 13 14 15 16 17 18 19 20 21 22 23 24 25 26 27 28 29 30 31 32 33 34 35 36 37 38 39 40 41 42 43 44 45 46 47 48 49 50
000
AXUS43 KGID 231002
MISGRI

GID CWA HOURLY WEATHER ROUNDUP
NATIONAL WEATHER SERVICE HASTINGS NE
400 AM CST TUE JAN 23 2018

NOTE: "FAIR" INDICATES FEW OR NO CLOUDS BELOW 12,000 FEET WITH NO
SIGNIFICANT WEATHER AND/OR OBSTRUCTIONS TO VISIBILITY.

...SOUTH CENTRAL NEBRASKA...

CITY           SKY/WX    TMP DP  RH WIND       PRES   REMARKS
GRAND ISLAND   CLEAR     17  15  92 NW16      30.06R WCI   2
KEARNEY        CLEAR     18  14  84 NW13      30.08R WCI   5
HASTINGS       CLEAR     21  16  81 NW15      30.07R WCI   8
ORD            CLEAR     12   9  87 N6        30.07R WCI   3
YORK           CLEAR     23  23 100 NW16      30.05R WCI  10
AURORA           N/A     17  16  93 NW12      30.06R WCI   4
LEXINGTON      CLEAR     17  11  76 NW13      30.10S WCI   4
HOLDREGE       CLEAR     21  16  81 NW8       30.08S WCI  12
HEBRON         CLOUDY    23  20  88 NW7       30.09R WCI  15

...NEBRASKA PANHANDLE...

CITY           SKY/WX    TMP DP  RH WIND       PRES   REMARKS
CHADRON        CLOUDY    24  17  74 VRB3      30.12R
ALLIANCE       CLOUDY    21  17  84 W6        30.09R WCI  13
SCOTTSBLUFF    CLOUDY    24  17  74 W8        30.13S WCI  15
SIDNEY         CLOUDY    30  21  69 NW17      30.11R WCI  18

...WESTERN AND NORTH CENTRAL NEBRASKA...

CITY           SKY/WX    TMP DP  RH WIND       PRES   REMARKS
VALENTINE      MOCLDY    13   8  81 W6        30.07S WCI   4
AINSWORTH      CLEAR     18  14  84 NW10      30.05S WCI   6
ONEILL         CLOUDY    21  21 100 NW10      30.05S FOG     WCI   9
BROKEN BOW     CLEAR     22  13  68 NW17      30.06S WCI   8
IMPERIAL       PTCLDY    17  11  77 NW7       30.11F WCI   8
NORTH PLATTE   PTCLDY     6   2  83 NW7       30.11R WCI  -6
MCCOOK         CLEAR     18  11  74 W13       30.12S WCI   5

...EASTERN NEBRASKA...

CITY           SKY/WX    TMP DP  RH WIND       PRES   REMARKS
NORFOLK        CLOUDY    26  19  74 NW17      30.04R WCI  13
SO SIOUX CITY  CLOUDY    24  22  91 N23       30.02R WCI   9
TEKAMAH        CLOUDY    26  24  92 N18       30.04R WCI  13
COLUMBUS       CLOUDY    23  21  92 NW22      30.05R WCI   8
ALBION         CLOUDY    21  19  91 NW17      30.05R WCI   7
OMAHA EPPLEY   CLOUDY    27  23  85 NW22G31   30.01R WCI  13
OFFUTT AFB     CLOUDY    27  23  85 NW12G24   30.01R WCI  17
MILLARD        CLOUDY    27  23  84 NW22G29   30.03R WCI  13
LINCOLN        CLOUDY    24  19  81 N15G25    30.07R WCI  11
NEBRASKA CITY  CLOUDY    27  27 100 NW18G24   30.01R WCI  13
BEATRICE       CLOUDY    26  22  85 N16       30.06R WCI  13
FALLS CITY     CLOUDY    27  23  85 NW21      30.01R WCI  13

...NORTHERN KANSAS...

CITY           SKY/WX    TMP DP  RH WIND       PRES   REMARKS
GOODLAND       PTCLDY    18  10  71 NW13      30.12R WCI   5
HILL CITY      CLEAR     23  15  71 NW7       30.13R WCI  15
NORTON         SUNNY     19  10  68 W18       30.11  WCI   4
PHILLIPSBURG   CLEAR     21  16  79 W12       30.11S WCI   9
SMITH CENTER   CLEAR     18  16  93 NW7       30.11R WCI   8
HAYS           CLEAR     22  16  78 W7        30.12R WCI  13
RUSSELL        CLEAR     25  18  74 NW15      30.09S WCI  13
CONCORDIA      CLEAR     22  19  89 NW8       30.08R WCI  12
SALINA         CLEAR     27  22  81 NW15      30.09R WCI  15
TOPEKA         CLOUDY    28  25  88 NW14G22   30.04R WCI  17



USA.gov is the U.S. government's official web portal to all federal, state and local government web resources and services.